Location: Beekmeers
(50.8953°N, 3.6968°E)
Time: 03:31:15
(UTC+00:00)

Meteor 1-12 Rocket - Pass Details

Date: 23 May 2024
Orbit: 855 x 925 km, 81.2° (Epoch: 21 June)

Event Time Altitude Azimuth Distance (km) Brightness Sun altitude
Rises 00:00:10 0° 347° (NNW) 3,510 8.8 -18.4°
Reaches altitude 10° 00:02:36 10° 347° (NNW) 2,576 7.8 -18.3°
Maximum altitude 00:08:30 90° 262° (W) 914 4.3 -18.2°
Enters shadow 00:11:44 29° 170° (S) 1,611 5.1 -18.2°
